Time,TemperatureF,DewpointF,PressureIn,WindDirection,WindDirectionDegrees,WindSpeedMPH,WindSpeedGustMPH,Humidity,HourlyPrecipIn,Conditions,Clouds,dailyrainin,SoftwareType,DateUTC
2013-07-19 00:08:00,75.3,74.0,29.99,South,169,0.0,0.0,96,0.00,,,0.00,weatherlink.com 1.10,2013-07-19 04:08:00,
2013-07-19 00:24:00,75.6,74.0,29.98,ESE,122,0.0,3.0,96,0.00,,,0.00,weatherlink.com 1.10,2013-07-19 04:24:00,
2013-07-19 00:38:00,75.7,75.0,29.98,SSE,152,0.0,2.0,96,0.00,,,0.00,weatherlink.com 1.10,2013-07-19 04:38:00,
2013-07-19 00:54:00,75.6,74.0,29.98,SSE,152,0.0,1.0,96,0.00,,,0.00,weatherlink.com 1.10,2013-07-19 04:54:00,
2013-07-19 01:09:00,75.5,74.0,29.98,SSE,152,0.0,1.0,96,0.00,,,0.00,weatherlink.com 1.10,2013-07-19 05:09:00,
2013-07-19 01:24:00,75.3,74.0,29.97,SSE,152,0.0,1.0,96,0.00,,,0.00,weatherlink.com 1.10,2013-07-19 05:24:00,
2013-07-19 01:39:00,75.4,74.0,29.97,SSE,152,0.0,1.0,96,0.00,,,0.00,weatherlink.com 1.10,2013-07-19 05:39:00,
2013-07-19 01:54:00,75.5,74.0,29.97,SE,126,0.0,2.0,96,0.00,,,0.00,weatherlink.com 1.10,2013-07-19 05:54:00,
2013-07-19 02:09:00,75.8,75.0,29.97,East,79,0.0,2.0,96,0.00,,,0.00,weatherlink.com 1.10,2013-07-19 06:09:00,
2013-07-19 02:23:00,75.7,75.0,29.97,SE,132,0.0,2.0,96,0.00,,,0.00,weatherlink.com 1.10,2013-07-19 06:23:00,
2013-07-19 02:39:00,75.6,74.0,29.97,SE,141,0.0,2.0,96,0.00,,,0.00,weatherlink.com 1.10,2013-07-19 06:39:00,
2013-07-19 02:55:00,75.7,75.0,29.97,East,81,0.0,2.0,96,0.00,,,0.00,weatherlink.com 1.10,2013-07-19 06:55:00,
2013-07-19 03:10:00,76.2,75.0,29.96,SSW,209,0.0,6.0,96,0.00,,,0.00,weatherlink.com 1.10,2013-07-19 07:10:00,
2013-07-19 03:24:00,76.6,75.0,29.96,SW,233,2.0,8.0,96,0.00,,,0.00,weatherlink.com 1.10,2013-07-19 07:24:00,
2013-07-19 03:39:00,76.8,75.0,29.96,WNW,282,0.0,7.0,95,0.00,,,0.00,weatherlink.com 1.10,2013-07-19 07:39:00,
2013-07-19 03:55:00,77.0,75.0,29.96,South,183,1.0,9.0,94,0.00,,,0.00,weatherlink.com 1.10,2013-07-19 07:55:00,
2013-07-19 04:09:00,77.2,75.0,29.96,West,270,5.0,9.0,93,0.00,,,0.00,weatherlink.com 1.10,2013-07-19 08:09:00,
2013-07-19 04:25:00,77.4,75.0,29.95,West,262,6.0,9.0,93,0.00,,,0.00,weatherlink.com 1.10,2013-07-19 08:25:00,
2013-07-19 04:39:00,77.4,75.0,29.95,WNW,288,4.0,9.0,93,0.00,,,0.00,weatherlink.com 1.10,2013-07-19 08:39:00,
2013-07-19 04:55:00,77.2,75.0,29.95,WNW,299,5.0,11.0,93,0.00,,,0.00,weatherlink.com 1.10,2013-07-19 08:55:00,
2013-07-19 05:10:00,77.1,75.0,29.95,West,276,5.0,8.0,93,0.00,,,0.00,weatherlink.com 1.10,2013-07-19 09:10:00,
2013-07-19 05:25:00,77.0,75.0,29.95,WSW,250,0.0,9.0,93,0.00,,,0.00,weatherlink.com 1.10,2013-07-19 09:25:00,
2013-07-19 05:40:00,77.0,75.0,29.95,SW,228,0.0,6.0,93,0.00,,,0.00,weatherlink.com 1.10,2013-07-19 09:40:00,
2013-07-19 05:55:00,76.9,75.0,29.95,NW,319,1.0,6.0,93,0.00,,,0.00,weatherlink.com 1.10,2013-07-19 09:55:00,
2013-07-19 06:11:00,77.0,75.0,29.95,WNW,297,1.0,7.0,93,0.00,,,0.00,weatherlink.com 1.10,2013-07-19 10:11:00,
2013-07-19 06:25:00,77.1,75.0,29.94,SSE,165,0.0,3.0,93,0.00,,,0.00,weatherlink.com 1.10,2013-07-19 10:25:00,
2013-07-19 06:41:00,77.3,75.0,29.95,WSW,249,6.0,6.0,93,0.00,,,0.00,weatherlink.com 1.10,2013-07-19 10:41:00,
2013-07-19 06:55:00,77.8,76.0,29.94,SW,226,1.0,4.0,93,0.00,,,0.00,weatherlink.com 1.10,2013-07-19 10:55:00,
2013-07-19 07:10:00,78.6,76.0,29.94,WNW,290,3.0,4.0,91,0.00,,,0.00,weatherlink.com 1.10,2013-07-19 11:10:00,
2013-07-19 07:26:00,80.0,77.0,29.94,WSW,254,3.0,5.0,90,0.00,,,0.00,weatherlink.com 1.10,2013-07-19 11:26:00,
2013-07-19 07:40:00,80.7,77.0,29.94,SSW,210,1.0,9.0,88,0.00,,,0.00,weatherlink.com 1.10,2013-07-19 11:40:00,
2013-07-19 07:56:00,81.4,78.0,29.95,WSW,251,2.0,9.0,88,0.00,,,0.00,weatherlink.com 1.10,2013-07-19 11:56:00,
2013-07-19 08:12:00,81.5,77.0,29.95,ENE,77,4.0,13.0,86,0.00,,,0.00,weatherlink.com 1.10,2013-07-19 12:12:00,
2013-07-19 08:26:00,82.3,77.0,29.95,SE,145,1.0,10.0,84,0.00,,,0.00,weatherlink.com 1.10,2013-07-19 12:26:00,
2013-07-19 08:42:00,83.3,78.0,29.94,SSE,165,1.0,9.0,83,0.00,,,0.00,weatherlink.com 1.10,2013-07-19 12:42:00,
2013-07-19 08:56:00,84.3,78.0,29.94,WNW,283,4.0,7.0,81,0.00,,,0.00,weatherlink.com 1.10,2013-07-19 12:56:00,
2013-07-19 09:11:00,84.2,78.0,29.94,SSE,150,2.0,9.0,81,0.00,,,0.00,weatherlink.com 1.10,2013-07-19 13:11:00,
2013-07-19 09:27:00,84.6,78.0,29.94,SSE,162,2.0,10.0,81,0.00,,,0.00,weatherlink.com 1.10,2013-07-19 13:27:00,
2013-07-19 09:41:00,84.2,78.0,29.94,SW,223,3.0,12.0,82,0.00,,,0.00,weatherlink.com 1.10,2013-07-19 13:41:00,
2013-07-19 09:57:00,84.5,78.0,29.94,WNW,283,6.0,11.0,81,0.00,,,0.00,weatherlink.com 1.10,2013-07-19 13:57:00,
2013-07-19 10:13:00,84.1,78.0,29.94,SW,214,2.0,15.0,81,0.00,,,0.00,weatherlink.com 1.10,2013-07-19 14:13:00,
2013-07-19 10:27:00,85.1,79.0,29.93,South,183,3.0,11.0,82,0.00,,,0.00,weatherlink.com 1.10,2013-07-19 14:27:00,
2013-07-19 10:42:00,85.0,79.0,29.94,West,259,5.0,12.0,81,0.00,,,0.00,weatherlink.com 1.10,2013-07-19 14:42:00,
2013-07-19 10:56:00,84.5,78.0,29.93,West,281,4.0,13.0,81,0.00,,,0.00,weatherlink.com 1.10,2013-07-19 14:56:00,
2013-07-19 11:13:00,84.7,78.0,29.93,NNW,333,3.0,14.0,80,0.00,,,0.00,weatherlink.com 1.10,2013-07-19 15:13:00,
2013-07-19 11:27:00,85.0,78.0,29.93,SSE,153,1.0,13.0,80,0.00,,,0.00,weatherlink.com 1.10,2013-07-19 15:27:00,
2013-07-19 11:43:00,86.0,78.0,29.93,SE,135,1.0,12.0,78,0.00,,,0.00,weatherlink.com 1.10,2013-07-19 15:43:00,
2013-07-19 11:57:00,85.7,78.0,29.92,SW,234,11.0,15.0,78,0.00,,,0.00,weatherlink.com 1.10,2013-07-19 15:57:00,
2013-07-19 12:13:00,86.2,79.0,29.92,SE,124,3.0,13.0,78,0.00,,,0.00,weatherlink.com 1.10,2013-07-19 16:13:00,
2013-07-19 12:27:00,86.3,78.0,29.91,WSW,243,3.0,18.0,77,0.00,,,0.00,weatherlink.com 1.10,2013-07-19 16:27:00,
2013-07-19 12:43:00,86.6,78.0,29.91,WNW,285,9.0,14.0,76,0.00,,,0.00,weatherlink.com 1.10,2013-07-19 16:43:00,
2013-07-19 12:57:00,87.5,80.0,29.91,SSW,209,2.0,10.0,78,0.00,,,0.00,weatherlink.com 1.10,2013-07-19 16:57:00,
2013-07-19 13:12:00,87.6,80.0,29.91,NW,305,3.0,7.0,78,0.00,,,0.00,weatherlink.com 1.10,2013-07-19 17:12:00,
2013-07-19 13:28:00,87.6,78.0,29.90,SSW,200,4.0,15.0,74,0.00,,,0.00,weatherlink.com 1.10,2013-07-19 17:28:00,
2013-07-19 13:44:00,87.7,79.0,29.89,WSW,245,3.0,11.0,75,0.00,,,0.00,weatherlink.com 1.10,2013-07-19 17:44:00,
2013-07-19 13:58:00,87.5,80.0,29.89,South,182,1.0,13.0,77,0.00,,,0.00,weatherlink.com 1.10,2013-07-19 17:58:00,
2013-07-19 14:13:00,87.0,79.0,29.89,WNW,303,3.0,15.0,76,0.00,,,0.00,weatherlink.com 1.10,2013-07-19 18:13:00,
2013-07-19 14:29:00,86.7,79.0,29.88,SW,233,3.0,11.0,77,0.00,,,0.00,weatherlink.com 1.10,2013-07-19 18:29:00,
2013-07-19 14:43:00,86.3,80.0,29.88,NNW,342,1.0,14.0,80,0.00,,,0.00,weatherlink.com 1.10,2013-07-19 18:43:00,
2013-07-19 14:59:00,86.5,79.0,29.87,North,356,1.0,11.0,77,0.00,,,0.00,weatherlink.com 1.10,2013-07-19 18:59:00,
2013-07-19 15:14:00,86.6,79.0,29.86,West,269,5.0,9.0,78,0.00,,,0.00,weatherlink.com 1.10,2013-07-19 19:14:00,
2013-07-19 15:28:00,86.1,79.0,29.86,South,179,8.0,15.0,78,0.00,,,0.00,weatherlink.com 1.10,2013-07-19 19:28:00,
2013-07-19 15:44:00,86.1,78.0,29.86,North,1,4.0,15.0,77,0.00,,,0.00,weatherlink.com 1.10,2013-07-19 19:44:00,
2013-07-19 15:58:00,85.8,78.0,29.85,South,172,0.0,18.0,78,0.00,,,0.00,weatherlink.com 1.10,2013-07-19 19:58:00,
2013-07-19 16:14:00,85.3,78.0,29.84,NNW,328,2.0,14.0,78,0.00,,,0.00,weatherlink.com 1.10,2013-07-19 20:14:00,
2013-07-19 16:29:00,85.4,78.0,29.84,SW,214,1.0,10.0,78,0.00,,,0.00,weatherlink.com 1.10,2013-07-19 20:29:00,
2013-07-19 16:46:00,85.5,78.0,29.83,WSW,244,3.0,9.0,77,0.00,,,0.00,weatherlink.com 1.10,2013-07-19 20:46:00,
2013-07-19 17:05:00,85.0,77.0,29.84,SW,225,5.0,9.0,78,0.00,,,0.00,weatherlink.com 1.10,2013-07-19 21:05:00,
2013-07-19 17:15:00,84.6,77.0,29.83,SSE,154,2.0,11.0,79,0.00,,,0.00,weatherlink.com 1.10,2013-07-19 21:15:00,
2013-07-19 17:29:00,84.2,77.0,29.82,SSW,202,3.0,15.0,80,0.00,,,0.00,weatherlink.com 1.10,2013-07-19 21:29:00,
2013-07-19 17:44:00,83.9,77.0,29.82,SW,231,2.0,25.0,80,0.00,,,0.00,weatherlink.com 1.10,2013-07-19 21:44:00,
2013-07-19 18:00:00,83.5,77.0,29.81,SSE,156,4.0,11.0,80,0.00,,,0.00,weatherlink.com 1.10,2013-07-19 22:00:00,
2013-07-19 18:14:00,83.0,76.0,29.81,North,358,4.0,19.0,80,0.00,,,0.00,weatherlink.com 1.10,2013-07-19 22:14:00,
2013-07-19 18:30:00,82.4,76.0,29.82,SSW,196,2.0,12.0,81,0.00,,,0.00,weatherlink.com 1.10,2013-07-19 22:30:00,
2013-07-19 18:44:00,81.9,76.0,29.82,SW,229,2.0,11.0,81,0.00,,,0.00,weatherlink.com 1.10,2013-07-19 22:44:00,
2013-07-19 19:05:00,81.5,76.0,29.82,WSW,256,1.0,9.0,82,0.00,,,0.00,weatherlink.com 1.10,2013-07-19 23:05:00,
2013-07-19 19:16:00,81.0,75.0,29.82,SW,221,4.0,11.0,83,0.00,,,0.00,weatherlink.com 1.10,2013-07-19 23:16:00,
2013-07-19 19:30:00,80.3,76.0,29.82,SE,144,2.0,10.0,85,0.00,,,0.00,weatherlink.com 1.10,2013-07-19 23:30:00,
2013-07-19 19:46:00,80.0,75.0,29.83,WSW,257,2.0,11.0,84,0.00,,,0.00,weatherlink.com 1.10,2013-07-19 23:46:00,
2013-07-19 20:04:00,79.6,75.0,29.83,WSW,255,5.0,15.0,85,0.00,,,0.00,weatherlink.com 1.10,2013-07-20 00:04:00,
2013-07-19 20:16:00,79.6,74.0,29.83,SW,230,2.0,18.0,84,0.00,,,0.00,weatherlink.com 1.10,2013-07-20 00:16:00,
2013-07-19 20:30:00,79.5,74.0,29.83,WSW,255,3.0,13.0,84,0.00,,,0.00,weatherlink.com 1.10,2013-07-20 00:30:00,
2013-07-19 20:45:00,79.3,75.0,29.84,WSW,258,18.0,24.0,85,0.00,,,0.00,weatherlink.com 1.10,2013-07-20 00:45:00,
2013-07-19 21:04:00,79.1,74.0,29.84,NE,52,1.0,16.0,85,0.00,,,0.00,weatherlink.com 1.10,2013-07-20 01:04:00,
2013-07-19 21:15:00,78.9,74.0,29.84,South,188,1.0,14.0,86,0.00,,,0.00,weatherlink.com 1.10,2013-07-20 01:15:00,
2013-07-19 21:31:00,78.7,74.0,29.84,South,179,2.0,17.0,86,0.00,,,0.00,weatherlink.com 1.10,2013-07-20 01:31:00,
2013-07-19 21:46:00,78.6,75.0,29.84,North,354,4.0,14.0,87,0.00,,,0.00,weatherlink.com 1.10,2013-07-20 01:46:00,
2013-07-19 22:04:00,78.6,74.0,29.85,WSW,240,4.0,15.0,86,0.00,,,0.00,weatherlink.com 1.10,2013-07-20 02:04:00,
2013-07-19 22:16:00,78.7,74.0,29.85,West,274,3.0,20.0,86,0.00,,,0.00,weatherlink.com 1.10,2013-07-20 02:16:00,
2013-07-19 22:31:00,78.4,74.0,29.85,WNW,290,1.0,14.0,86,0.00,,,0.00,weatherlink.com 1.10,2013-07-20 02:31:00,
2013-07-19 22:45:00,78.2,74.0,29.85,SW,233,5.0,18.0,87,0.00,,,0.00,weatherlink.com 1.10,2013-07-20 02:45:00,
2013-07-19 23:05:00,78.1,74.0,29.84,South,180,3.0,13.0,87,0.00,,,0.00,weatherlink.com 1.10,2013-07-20 03:05:00,
2013-07-19 23:16:00,78.1,74.0,29.84,SSW,202,3.0,16.0,87,0.00,,,0.00,weatherlink.com 1.10,2013-07-20 03:16:00,
2013-07-19 23:32:00,78.1,74.0,29.83,West,269,1.0,12.0,87,0.00,,,0.00,weatherlink.com 1.10,2013-07-20 03:32:00,
2013-07-19 23:46:00,78.2,74.0,29.83,WSW,250,3.0,14.0,88,0.00,,,0.00,weatherlink.com 1.10,2013-07-20 03:46:00,